Location: *
(23.2444°S, 8.2722°E)
Time: 09:47:58
(UTC+00:00)

Daily predictions for brighter satellites

Satellite Brightness Start Highest point End
(mag) Time Altitude Azimuth Time Altitude Azimuth Time Altitude Azimuth
CORIOLIS 4.2 17:32:34 10° SSE 17:37:57 62° ENE 17:43:18 10° N
IRS-1C Rocket 4.3 17:32:56 10° SSE 17:38:06 51° E 17:43:13 10° N
STARLINK-1131 4.4 17:36:57 10° NW 17:41:02 54° SW 17:45:10 10° SSE
Cosmos 1470 4.0 17:39:44 10° SSW 17:43:29 46° W 17:47:11 10° NNW
CZ-4 R/B 2.9 17:41:59 10° ESE 17:44:23 15° E 17:46:43 10° NE
H-2A ROCKET BODY 1.7 17:43:09 10° WSW 17:45:41 27° SSW 17:47:21 10° SE
Cosmos 1452 Rocket 3.7 17:41:01 10° NNW 17:46:17 81° WSW 17:51:38 10° SSE
Cosmos 407 Rocket 3.5 17:41:44 10° SSW 17:47:05 85° ESE 17:52:18 10° NNE
Intelsat 5-1 Rocket 3.3 17:46:04 10° N 17:47:51 16° NE 17:50:16 10° ENE
Cosmos 1271 Rocket 4.0 17:44:37 10° NNW 17:48:17 46° W 17:52:04 10° S
Cosmos 1953 2.2 17:44:46 10° S 17:48:47 75° E 17:52:44 10° N
SWIFT 4.4 17:48:50 10° WNW 17:52:08 22° NNW 17:55:25 10° NE
STARLINK-48 4.5 17:48:51 10° SSW 17:52:17 28° SE 17:55:36 10° ENE
STARLINK 1040 4.2 17:53:28 10° S 17:55:31 19° SE 17:56:45 14° E
Okean O Rocket 4.2 17:52:58 10° SSW 17:56:31 24° WSW 18:00:03 10° NW
Cosmos 1110 Rocket 4.4 17:54:15 10° N 17:59:01 40° E 18:03:53 10° SSE
Aureole 3 3.4 17:57:00 10° SSW 18:00:04 61° W 18:03:30 10° N
Okean 1-7 Rocket 3.7 17:56:14 10° N 18:00:35 55° E 18:05:02 10° SSE
YAOGAN 1 3.7 17:59:34 10° SE 18:02:58 22° E 18:06:19 10° NNE
Meteosat 1 Rocket2 3.0 18:01:23 10° WSW 18:05:17 78° SSE 18:09:23 16° ENE
KORONAS-FOTON 4.1 18:02:02 10° NNW 18:05:48 70° W 18:09:38 10° S
STARLINK-80 3.4 18:02:11 10° SW 18:06:01 86° NW 18:09:49 10° NE
Envisat 3.6 18:02:26 10° S 18:07:29 62° WSW 18:12:29 10° NNW
Delta 7925 Rocket 4.3 18:01:54 10° W 18:08:09 78° S 18:14:39 17° ESE
Cosmos 304 Rocket 3.9 18:04:57 10° N 18:09:32 49° ENE 18:14:12 10° SSE
CZ-2D R/B 4.3 18:06:52 10° SE 18:10:02 24° E 18:13:09 10° NNE
Cosmos 1954 Rocket 4.0 18:06:20 10° S 18:11:39 64° ESE 18:16:54 10° NNE
TELKOM 3 4.3 18:07:05 10° NW 18:12:01 88° NE 18:15:05 15° SE
STARLINK-55 3.3 18:09:00 10° SSW 18:12:08 46° SE 18:13:50 23° ENE
USA 215 4.2 18:10:36 16° ESE 18:14:28 26° ENE 18:19:46 10° N
STARLINK-28 2.9 18:12:58 10° SSW 18:16:11 60° SE 18:17:55 24° NE
BREEZE-M DEB (TANK) 3.3 18:12:26 10° WNW 18:16:55 50° SW 18:19:01 15° SSE
Meteor 1-24 Rocket 3.5 18:12:28 10° N 18:17:47 73° E 18:23:18 10° SSE
STARLINK-26 3.5 18:15:15 10° SW 18:18:43 67° NW 18:22:02 11° NNE
Cosmos 2058 Rocket 3.7 18:16:57 10° SSE 18:21:04 34° E 18:25:10 10° NNE
GPS 2-14 Rocket1 3.2 18:17:43 10° W 18:21:31 50° N 18:23:33 25° ENE
CZ-2C R/B 3.6 18:19:14 19° ENE 18:21:47 26° ESE 18:26:18 10° SSE
BREEZE-M DEB (TANK) 4.4 18:18:22 10° SW 18:22:13 70° NW 18:35:52 10° NE
STARLINK-33 2.9 18:19:18 10° SSW 18:22:31 60° SE 18:23:40 34° ENE
Fermi 3.9 18:20:42 10° W 18:24:45 61° S 18:26:30 31° ESE
Cosmos 1726 Rocket 3.4 18:22:13 10° S 18:26:36 72° E 18:30:57 10° N
STARLINK-66 2.8 18:24:26 10° SW 18:27:41 75° SE 18:28:41 40° NE
Atlas Centaur 2 2.7 18:24:49 10° NW 18:31:00 44° NNE 18:33:09 30° ENE
Cosmos 1745 Rocket 4.5 18:25:17 10° NNW 18:31:20 62° W 18:37:27 10° S
Kiku-3 3.5 18:30:45 10° WSW 18:33:08 85° WSW 18:33:08 85° WSW
Cosmos 1302 Rocket 4.4 18:30:11 10° N 18:35:05 40° E 18:37:17 27° SE
Delta 168 2.9 18:33:51 10° WNW 18:37:14 57° NNE 18:38:06 45° ENE
STARLINK-75 2.8 18:35:01 10° SW 18:38:15 87° ESE 18:38:28 75° NE
OAO 3 Rocket 4.1 18:34:17 10° NNW 18:38:30 30° NE 18:38:57 29° NE
FUSE 4.0 18:33:51 10° W 18:39:16 73° S 18:41:21 38° ESE
Nadezhda 1 Rocket 4.0 18:33:27 10° S 18:39:52 82° E 18:46:16 10° N
CZ-2C R/B 3.5 18:35:45 10° NNE 18:40:12 71° ESE 18:44:40 10° S
Cosmos 2228 3.7 18:37:18 10° SSW 18:41:29 55° W 18:45:39 10° N
Cosmos 2082 Rocket 4.3 18:39:03 10° SSE 18:39:11 10° SSE 18:39:11 10° SSE
Cosmos 1626 Rocket 3.4 18:39:13 10° N 18:43:30 67° E 18:47:50 10° SSE
Okean-O 3.7 18:39:14 10° S 18:43:30 45° WSW 18:47:44 10° NNW
CSL-04 Debris 4.2 18:38:08 10° SSE 18:43:34 56° ENE 18:48:57 10° N
Cosmos 1626 2.6 18:41:46 10° NNW 18:45:25 59° W 18:49:09 10° S
BREEZE-M DEB (TANK) 3.7 18:37:55 10° NNW 18:49:54 42° NE 18:50:37 40° ENE
Cosmos 1833 Rocket 3.7 18:46:23 10° S 18:49:57 29° SE 18:49:57 29° SE
MOS 1 Rocket 3.5 18:52:48 52° E 18:53:10 54° ESE 18:58:04 10° S
STARLINK-22 4.1 18:51:09 10° SW 18:53:22 40° SW 18:53:22 40° SW
Cosmos 1602 Rocket 4.0 18:51:12 10° N 18:54:15 44° NNE 18:54:15 44° NNE
Cosmos 1340 Rocket 3.7 18:54:20 10° SSW 18:58:20 50° W 19:02:17 10° N
OAO 1 Rocket 4.3 18:56:59 10° WNW 19:02:22 83° NNE 19:02:56 71° E
Cosmos 1850 Rocket 3.8 18:57:23 10° S 19:02:42 75° ESE 19:03:17 67° NE
Cosmos 2297 3.6 18:59:17 10° NNW 19:05:01 88° ENE 19:08:02 30° SSE
COSMOS 2406 3.1 19:00:05 10° SSW 19:05:48 88° ESE 19:07:40 44° NNE
CSL-04 Rocket 3.6 19:01:26 10° SSE 19:06:55 85° WSW 19:12:15 10° NNW
Ariane H10+ 4.2 19:03:42 10° WNW 19:09:46 17° NNW 19:11:57 14° N
DELTA 2 R/B (1) 3.5 19:10:17 10° WNW 19:15:53 85° SW 19:15:54 85° SSW
CZ-4 R/B 3.7 19:16:07 10° SSW 19:19:16 22° WSW 19:22:21 10° NW
FALCON 9 R/B 4.3 19:51:04 10° WSW 19:53:30 16° SW 19:53:30 16° SW
USA 215 3.8 19:58:01 55° WSW 19:58:01 55° WSW 20:03:51 10° NW
